Middletown, OH

10:49 PM EDT on July 27, 2017 (GMT -0400)
Hook Field Municipal

Weather History for KMWO - October, 2013

Change the Weather History Date:

Tuesday, October 8, 2013

  Actual Average (KFFO) Record (KFFO)
Temperature  
Mean Temperature 54 °F -  
Max Temperature 67 °F 66 °F 89 °F (2007)
Min Temperature 40 °F 43 °F 31 °F (2012)
Degree Days  
Heating Degree Days 12    
Growing Degree Days 4 (Base 50)    
Moisture  
Dew Point 41 °F    
Average Humidity 70    
Maximum Humidity 89    
Minimum Humidity 29    
Precipitation  
Precipitation 0.00 in - - ()
Sea Level Pressure  
Sea Level Pressure 30.25 in    
Wind  
Wind Speed 2 mph (ENE)    
Max Wind Speed 12 mph    
Max Gust Speed -    
Visibility 8 miles    
Events Fog    
Averages and records for this station are not official NWS values.
T = Trace of Precipitation, MM = Missing Value Source: NWS Daily Summary

Daily Weather History Graph

Daily Weather History Graph

Search for Another Location

Airport or City:

Trip Planner

Search our weather history database for the weather conditions in past years. The results will help you decide how hot, cold, wet, or windy it might be!

Date:

Astronomy

Oct. 08, 2013 Rise Set
Actual Time 7:40 AM EDT 7:08 PM EDT
Civil Twilight 7:13 AM EDT 7:35 PM EDT
Nautical Twilight 6:42 AM EDT 8:06 PM EDT
Astronomical Twilight 6:11 AM EDT 8:37 PM EDT
Moon 11:33 AM EDT (10/8) 9:45 PM EDT (10/8)
Length of Visible Light 12h 21m
Length of Day
11h 27m
Waxing Crescent, 16% of the Moon is Illuminated
Oct 8
Waxing Crescent
Oct 11
First Quarter
Oct 18
Full
Oct 26
Last Quarter
Nov 3
New

Hourly Weather History & Observations

Time (EDT) Temp. Windchill Dew Point Humidity Pressure Visibility Wind Dir Wind Speed Gust Speed Precip Events Conditions
12:15 AM 45.1 °F - 41.7 °F 88% 30.19 in 7.0 mi Calm Calm - N/A   Clear
12:35 AM 45.9 °F - 42.4 °F 88% 30.19 in 10.0 mi Calm Calm - N/A   Clear
12:55 AM 45.1 °F - 41.9 °F 88% 30.19 in 7.0 mi Calm Calm - N/A   Clear
1:15 AM 45.1 °F - 41.9 °F 88% 30.20 in 10.0 mi Calm Calm - N/A   Mostly Cloudy
1:35 AM 45.1 °F - 41.9 °F 88% 30.20 in 7.0 mi Calm Calm - N/A   Overcast
1:55 AM 45.1 °F - 41.9 °F 88% 30.20 in 0.8 mi Calm Calm - N/A   Overcast
2:15 AM 42.3 °F - 38.8 °F 88% 30.21 in 7.0 mi Calm Calm - N/A   Mostly Cloudy
2:35 AM 44.6 °F - 41.4 °F 88% 30.21 in 7.0 mi Calm Calm - N/A   Mostly Cloudy
2:55 AM 45.1 °F - 42.1 °F 89% 30.21 in 0.2 mi Calm Calm - N/A Fog Fog
3:15 AM 45.3 °F - 42.3 °F 89% 30.21 in 0.2 mi Calm Calm - N/A Fog Fog
3:35 AM 45.1 °F - 41.9 °F 88% 30.21 in 0.2 mi Calm Calm - N/A Fog Fog
3:55 AM 45.1 °F - 42.1 °F 89% 30.21 in 0.2 mi Calm Calm - N/A Fog Fog
4:15 AM 42.8 °F - 39.6 °F 88% 30.21 in 0.2 mi Calm Calm - N/A Fog Fog
4:35 AM 41.4 °F - 38.3 °F 89% 30.21 in 7.0 mi Calm Calm - N/A   Mostly Cloudy
4:55 AM 41.4 °F - 38.3 °F 89% 30.22 in 5.0 mi Calm Calm - N/A   Mostly Cloudy
5:15 AM 41.0 °F - 37.8 °F 88% 30.22 in 10.0 mi Calm Calm - N/A   Mostly Cloudy
5:35 AM 42.8 °F - 39.6 °F 88% 30.23 in 0.2 mi Calm Calm - N/A Fog Fog
5:55 AM 41.5 °F - 38.5 °F 89% 30.23 in 1.0 mi Calm Calm - N/A   Overcast
6:15 AM 41.4 °F - 38.3 °F 89% 30.23 in 0.2 mi Calm Calm - N/A Fog Fog
6:35 AM 40.3 °F - 37.4 °F 89% 30.24 in 1.8 mi Calm Calm - N/A   Overcast
6:55 AM 40.5 °F - 37.4 °F 89% 30.25 in 2.5 mi Calm Calm - N/A   Overcast
7:15 AM 41.0 °F - 37.9 °F 89% 30.26 in 1.0 mi Calm Calm - N/A   Overcast
7:35 AM 40.1 °F - 37.0 °F 89% 30.26 in 7.0 mi Calm Calm - N/A   Scattered Clouds
7:55 AM 40.1 °F - 37.2 °F 89% 30.27 in 4.0 mi Calm Calm - N/A   Clear
8:15 AM 40.1 °F 38.0 °F 37.2 °F 89% 30.28 in 7.0 mi North 3.5 mph - N/A   Clear
8:35 AM 42.3 °F - 39.0 °F 88% 30.28 in 10.0 mi Calm Calm - N/A   Clear
8:55 AM 45.1 °F - 42.1 °F 89% 30.29 in 10.0 mi Calm Calm - N/A   Clear
9:15 AM 47.7 °F - 44.6 °F 89% 30.30 in 7.0 mi Calm Calm - N/A   Clear
9:35 AM 48.0 °F - 45.0 °F 89% 30.30 in 5.0 mi Calm Calm - N/A   Clear
9:55 AM 52.5 °F - 49.1 °F 88% 30.30 in 7.0 mi Calm Calm - N/A   Clear
10:15 AM 52.7 °F - 48.6 °F 86% 30.30 in 10.0 mi ENE 4.6 mph - N/A   Clear
10:35 AM 55.4 °F - 48.9 °F 79% 30.30 in 10.0 mi NE 4.6 mph - N/A   Clear
10:55 AM 57.7 °F - 48.6 °F 71% 30.30 in 10.0 mi East 4.6 mph - N/A   Clear
11:15 AM 57.7 °F - 46.0 °F 65% 30.30 in 10.0 mi ENE 5.8 mph - N/A   Clear
11:35 AM 60.1 °F - 43.2 °F 54% 30.30 in 10.0 mi East 6.9 mph - N/A   Clear
11:55 AM 60.6 °F - 42.6 °F 52% 30.30 in 10.0 mi ENE 6.9 mph - N/A   Clear
12:15 PM 61.9 °F - 42.1 °F 48% 30.29 in 10.0 mi ENE 6.9 mph - N/A   Clear
12:35 PM 62.4 °F - 41.0 °F 45% 30.29 in 10.0 mi East 5.8 mph - N/A   Clear
12:55 PM 65.1 °F - 43.2 °F 45% 30.29 in 10.0 mi East 8.1 mph - N/A   Clear
1:15 PM 65.3 °F - 39.9 °F 39% 30.29 in 10.0 mi ESE 6.9 mph - N/A   Clear
1:35 PM 65.8 °F - 39.6 °F 38% 30.28 in 10.0 mi ENE 10.4 mph - N/A   Clear
1:55 PM 67.5 °F - 39.7 °F 36% 30.27 in 10.0 mi East 11.5 mph - N/A   Clear
2:15 PM 67.6 °F - 42.1 °F 39% 30.26 in 10.0 mi East 8.1 mph - N/A   Clear
2:35 PM 67.6 °F - 39.7 °F 36% 30.25 in 10.0 mi ESE 9.2 mph - N/A   Clear
2:55 PM 67.6 °F - 37.8 °F 33% 30.25 in 7.0 mi East 8.1 mph - N/A   Clear
3:15 PM 67.6 °F - 37.4 °F 33% 30.25 in 10.0 mi East 5.8 mph - N/A   Clear
3:35 PM 67.6 °F - 36.9 °F 32% 30.24 in 7.0 mi ENE 6.9 mph - N/A   Clear
3:55 PM 67.6 °F - 36.1 °F 31% 30.24 in 10.0 mi ESE 6.9 mph - N/A   Clear
4:15 PM 67.6 °F - 36.5 °F 32% 30.23 in 10.0 mi ENE 9.2 mph - N/A   Clear
4:35 PM 67.6 °F - 36.5 °F 32% 30.23 in 10.0 mi ENE 10.4 mph - N/A   Clear
4:55 PM 67.6 °F - 35.1 °F 30% 30.23 in 10.0 mi East 5.8 mph - N/A   Clear
5:15 PM 67.6 °F - 34.5 °F 29% 30.23 in 10.0 mi East 8.1 mph - N/A   Clear
5:35 PM 67.6 °F - 35.2 °F 30% 30.23 in 10.0 mi East 5.8 mph - N/A   Clear
5:55 PM 67.6 °F - 35.6 °F 31% 30.23 in 10.0 mi ENE 5.8 mph - N/A   Clear
6:15 PM 67.6 °F - 37.8 °F 33% 30.23 in 10.0 mi ENE 4.6 mph - N/A   Clear
6:35 PM 66.4 °F - 41.9 °F 41% 30.23 in 10.0 mi ENE 3.5 mph - N/A   Clear
6:55 PM 61.2 °F - 40.6 °F 47% 30.23 in 10.0 mi ENE 3.5 mph - N/A   Clear
7:15 PM 57.7 °F - 47.8 °F 70% 30.23 in 10.0 mi Calm Calm - N/A   Clear
7:35 PM 55.0 °F - 47.1 °F 75% 30.23 in 10.0 mi Calm Calm - N/A   Clear
7:55 PM 52.7 °F - 45.0 °F 75% 30.23 in 10.0 mi NNE 3.5 mph - N/A   Clear
8:15 PM 52.9 °F - 45.3 °F 75% 30.24 in 10.0 mi North 3.5 mph - N/A   Clear
8:35 PM 52.7 °F - 46.6 °F 80% 30.24 in 10.0 mi North 3.5 mph - N/A   Clear
8:55 PM 52.7 °F - 47.1 °F 81% 30.25 in 10.0 mi North 3.5 mph - N/A   Clear
9:15 PM 52.7 °F - 47.5 °F 82% 30.25 in 10.0 mi NNE 3.5 mph - N/A   Clear
9:35 PM 50.2 °F - 45.1 °F 83% 30.25 in 10.0 mi Calm Calm - N/A   Clear
9:55 PM 50.2 °F - 45.3 °F 83% 30.25 in 10.0 mi Calm Calm - N/A   Clear
10:15 PM 50.2 °F - 45.0 °F 82% 30.25 in 7.0 mi Calm Calm - N/A   Clear
10:35 PM 50.0 °F - 45.0 °F 83% 30.25 in 10.0 mi Calm Calm - N/A   Clear
10:55 PM 47.8 °F - 42.8 °F 83% 30.25 in 10.0 mi Calm Calm - N/A   Clear
11:15 PM 47.7 °F - 43.0 °F 84% 30.25 in 10.0 mi Calm Calm - N/A   Clear
11:35 PM 47.7 °F - 43.0 °F 84% 30.25 in 10.0 mi Calm Calm - N/A   Clear
11:55 PM 47.7 °F - 43.0 °F 84% 30.25 in 10.0 mi Calm Calm - N/A   Clear